When you browse on this site, cookies collect data to enhance your experience and personalize the content and advertising you see.
Visit our Privacy Policy to learn more. By continuing to use the site, you agree to this use of cookies and data.
  • In Czech Republic
  • List of Countries
  • For 7 days
  • Water Temperature
  • Weather Map
  • Weather Widgets
  • user-avatar
    Login

    Hourly Weather Djelfa

    Today, 21 February, Friday

    Time Temperature Precipitation Wind Pressure Humidity
    00:00 +9°C° 0 mm 3 mps 669 mmHg 62%
    01:00 +9°C° 0 mm 3 mps 668 mmHg 65%
    02:00 +8°C° 0 mm 2 mps 668 mmHg 68%
    03:00 +8°C° 0 mm 2 mps 668 mmHg 71%
    04:00 +8°C° 0 mm 1 mps 668 mmHg 72%
    05:00 +8°C° 0 mm 1 mps 668 mmHg 73%
    06:00 +8°C° 0 mm 1 mps 668 mmHg 75%
    13:00 +16°C° 0 mm 2 mps 670 mmHg 38%
    14:00 +16°C° 0 mm 2 mps 670 mmHg 34%
    15:00 +16°C° 0 mm 2 mps 670 mmHg 31%
    16:00 +15°C° 0 mm 2 mps 670 mmHg 35%
    17:00 +14°C° 0 mm 2 mps 669 mmHg 39%
    18:00 +13°C° 0 mm 2 mps 669 mmHg 43%
    19:00 +13°C° 0 mm 2 mps 670 mmHg 46%
    20:00 +12°C° 0 mm 1 mps 670 mmHg 49%
    21:00 +11°C° 0 mm 1 mps 670 mmHg 53%
    22:00 +11°C° 0 mm 1 mps 670 mmHg 54%
    23:00 +9°C° 0 mm 0 mps 670 mmHg 55%

    Tomorrow, 22 February, Saturday

    Time Temperature Precipitation Wind Pressure Humidity
    00:00 +8°C° 0 mm 0 mps 669 mmHg 56%
    01:00 +8°C° 0 mm 0 mps 669 mmHg 57%
    02:00 +7°C° 0 mm 0 mps 669 mmHg 59%
    03:00 +7°C° 0 mm 0 mps 669 mmHg 60%
    04:00 +7°C° 0 mm 0 mps 669 mmHg 61%
    05:00 +6°C° 0 mm 0 mps 669 mmHg 62%
    06:00 +6°C° 0 mm 0 mps 669 mmHg 63%
    07:00 +9°C° 0 mm 1 mps 670 mmHg 56%
    08:00 +11°C° 0 mm 1 mps 671 mmHg 49%
    09:00 +13°C° 0 mm 1 mps 672 mmHg 42%
    10:00 +14°C° 0 mm 1 mps 672 mmHg 37%
    11:00 +15°C° 0 mm 2 mps 672 mmHg 33%
    12:00 +16°C° 0 mm 2 mps 672 mmHg 28%
    13:00 +16°C° 0 mm 2 mps 672 mmHg 26%
    14:00 +17°C° 0 mm 2 mps 672 mmHg 24%
    15:00 +17°C° 0 mm 2 mps 672 mmHg 23%
    16:00 +16°C° 0 mm 3 mps 672 mmHg 26%
    17:00 +14°C° 0 mm 3 mps 672 mmHg 29%
    18:00 +13°C° 0 mm 3 mps 671 mmHg 32%
    19:00 +12°C° 0 mm 3 mps 672 mmHg 33%
    20:00 +12°C° 0 mm 2 mps 672 mmHg 35%
    21:00 +11°C° 0 mm 1 mps 672 mmHg 36%
    22:00 +10°C° 0 mm 1 mps 672 mmHg 37%
    23:00 +9°C° 0 mm 0 mps 672 mmHg 37%

    Day after tomorrow, 23 February, Sunday

    Time Temperature Precipitation Wind Pressure Humidity
    00:00 +8°C° 0 mm 0 mps 672 mmHg 38%
    01:00 +7°C° 0 mm 0 mps 671 mmHg 38%
    02:00 +7°C° 0 mm 0 mps 671 mmHg 39%
    03:00 +7°C° 0 mm 0 mps 671 mmHg 39%
    04:00 +6°C° 0 mm 0 mps 671 mmHg 40%
    05:00 +6°C° 0 mm 0 mps 671 mmHg 41%
    06:00 +6°C° 0 mm 0 mps 671 mmHg 42%
    07:00 +8°C° 0 mm 0 mps 672 mmHg 37%
    08:00 +10°C° 0 mm 0 mps 673 mmHg 32%
    09:00 +13°C° 0 mm 1 mps 674 mmHg 27%
    10:00 +14°C° 0 mm 1 mps 674 mmHg 25%
    11:00 +15°C° 0 mm 1 mps 674 mmHg 22%
    12:00 +16°C° 0 mm 2 mps 674 mmHg 20%
    13:00 +16°C° 0 mm 2 mps 674 mmHg 19%
    14:00 +17°C° 0 mm 2 mps 674 mmHg 18%
    15:00 +17°C° 0 mm 3 mps 673 mmHg 18%
    16:00 +16°C° 0 mm 3 mps 673 mmHg 21%
    17:00 +15°C° 0 mm 2 mps 673 mmHg 25%
    18:00 +13°C° 0 mm 2 mps 673 mmHg 28%
    19:00 +12°C° 0 mm 1 mps 673 mmHg 31%
    20:00 +11°C° 0 mm 1 mps 673 mmHg 34%
    21:00 +10°C° 0 mm 0 mps 673 mmHg 37%
    22:00 +10°C° 0 mm 1 mps 673 mmHg 37%
    23:00 +10°C° 0 mm 1 mps 673 mmHg 36%

    24 February, Monday

    Time Temperature Precipitation Wind Pressure Humidity
    00:00 +9°C° 0 mm 2 mps 673 mmHg 36%
    01:00 +9°C° 0 mm 2 mps 672 mmHg 38%
    02:00 +8°C° 0 mm 2 mps 672 mmHg 39%
    03:00 +8°C° 0 mm 2 mps 671 mmHg 41%
    04:00 +8°C° 0 mm 2 mps 671 mmHg 41%
    05:00 +7°C° 0 mm 2 mps 671 mmHg 41%
    06:00 +8°C° 0 mm 1 mps 671 mmHg 41%
    07:00 +9°C° 0 mm 2 mps 672 mmHg 37%
    08:00 +12°C° 0 mm 2 mps 672 mmHg 33%
    09:00 +13°C° 0 mm 3 mps 673 mmHg 29%
    10:00 +16°C° 0 mm 3 mps 673 mmHg 27%
    11:00 +17°C° 0 mm 3 mps 673 mmHg 24%
    12:00 +18°C° 0 mm 4 mps 673 mmHg 22%
    13:00 +19°C° 0 mm 4 mps 672 mmHg 20%
    14:00 +19°C° 0 mm 4 mps 672 mmHg 19%
    15:00 +19°C° 0 mm 4 mps 671 mmHg 18%
    16:00 +18°C° 0 mm 3 mps 671 mmHg 21%
    17:00 +16°C° 0 mm 3 mps 670 mmHg 24%
    18:00 +14°C° 0 mm 3 mps 670 mmHg 26%
    19:00 +13°C° 0 mm 3 mps 670 mmHg 27%
    20:00 +14°C° 0 mm 2 mps 670 mmHg 27%
    21:00 +13°C° 0 mm 2 mps 670 mmHg 27%
    22:00 +13°C° 0 mm 2 mps 670 mmHg 27%
    23:00 +12°C° 0 mm 2 mps 669 mmHg 27%

    25 February, Tuesday

    Time Temperature Precipitation Wind Pressure Humidity
    00:00 +12°C° 0 mm 2 mps 669 mmHg 27%
    01:00 +10°C° 0 mm 2 mps 669 mmHg 27%
    02:00 +10°C° 0 mm 3 mps 668 mmHg 27%
    03:00 +10°C° 0 mm 3 mps 668 mmHg 27%
    04:00 +9°C° 0 mm 3 mps 668 mmHg 28%
    05:00 +9°C° 0 mm 3 mps 668 mmHg 28%
    06:00 +9°C° 0 mm 3 mps 668 mmHg 29%
    07:00 +10°C° 0 mm 3 mps 668 mmHg 29%
    08:00 +12°C° 0 mm 3 mps 669 mmHg 28%
    09:00 +13°C° 0 mm 4 mps 669 mmHg 28%
    10:00 +14°C° 0 mm 4 mps 669 mmHg 26%
    11:00 +15°C° 0 mm 5 mps 669 mmHg 24%
    12:00 +16°C° 0 mm 5 mps 669 mmHg 23%
    13:00 +17°C° 0 mm 6 mps 669 mmHg 22%
    14:00 +17°C° 0 mm 6 mps 668 mmHg 22%
    15:00 +17°C° 0 mm 6 mps 668 mmHg 21%
    16:00 +16°C° 0 mm 6 mps 668 mmHg 26%
    17:00 +14°C° 0 mm 5 mps 667 mmHg 30%
    18:00 +13°C° 0 mm 4 mps 667 mmHg 35%
    19:00 +12°C° 0 mm 5 mps 667 mmHg 41%
    20:00 +10°C° 0 mm 5 mps 667 mmHg 46%
    21:00 +9°C° 0 mm 5 mps 667 mmHg 52%
    22:00 +9°C° 0 mm 5 mps 667 mmHg 55%
    23:00 +8°C° 0 mm 5 mps 667 mmHg 57%

    26 February, Wednesday

    Time Temperature Precipitation Wind Pressure Humidity
    00:00 +8°C° 0 mm 6 mps 667 mmHg 60%
    01:00 +7°C° 0 mm 5 mps 666 mmHg 60%
    02:00 +7°C° 0 mm 5 mps 666 mmHg 60%
    03:00 +6°C° 0 mm 5 mps 665 mmHg 60%
    04:00 +6°C° 0 mm 5 mps 665 mmHg 58%
    05:00 +6°C° 0 mm 4 mps 665 mmHg 56%
    06:00 +5°C° 0 mm 4 mps 665 mmHg 54%
    07:00 +7°C° 0 mm 5 mps 666 mmHg 47%
    08:00 +9°C° 0 mm 5 mps 666 mmHg 39%
    09:00 +10°C° 0 mm 6 mps 667 mmHg 32%
    10:00 +13°C° 0 mm 6 mps 667 mmHg 29%
    11:00 +14°C° 0 mm 7 mps 667 mmHg 26%
    12:00 +16°C° 0 mm 7 mps 668 mmHg 23%
    13:00 +16°C° 0 mm 7 mps 667 mmHg 25%
    14:00 +16°C° 0 mm 7 mps 667 mmHg 26%
    15:00 +16°C° 0 mm 7 mps 666 mmHg 27%
    16:00 +14°C° 0 mm 6 mps 666 mmHg 34%
    17:00 +13°C° 0 mm 5 mps 666 mmHg 40%
    18:00 +12°C° 0 mm 4 mps 666 mmHg 46%
    19:00 +11°C° 0 mm 3 mps 666 mmHg 52%
    20:00 +10°C° 0 mm 3 mps 666 mmHg 58%
    21:00 +9°C° 0 mm 2 mps 666 mmHg 63%
    22:00 +9°C° 0 mm 2 mps 666 mmHg 65%
    23:00 +8°C° 0 mm 2 mps 666 mmHg 67%
    Show more